DateTimeUTC,F1_A11,F1_S11,BsB_S11,BsG_S11,BsR_S11,BbsB_S11,BbsG_S11,BbsR_S11,BaB_A11,BaG_A11,BaR_A11,Tu_S11,T_S11,Uu_S11,U_S11,P_S11,T1_A11
2021-08-24T04:00:00Z,00000200,21000000,,,,,,,0000.18,-000.07,-000.58,17.9,25.2,00.8,00.5,0679.6,30.9
2021-08-24T04:01:00Z,00000200,21000000,,,,,,,0000.00,-000.06,0000.41,17.9,25.2,00.6,00.4,0679.6,30.9
2021-08-24T04:02:00Z,00000200,21000000,,,,,,,-000.23,0000.19,0000.39,17.9,25.2,00.6,00.4,0679.6,30.9
2021-08-24T04:03:00Z,00000200,61000000,,,,,,,0000.07,-000.12,-000.13,17.9,25.2,00.6,00.4,0679.6,31.0
2021-08-24T04:04:00Z,00000200,41000000,0000.23,-000.04,0000.13,-000.07,0000.18,0000.28,0000.04,0000.02,-000.04,18.3,25.1,00.7,00.4,0680.5,31.0
2021-08-24T04:05:00Z,00000200,01000000,-000.58,0000.28,0000.31,0000.64,-000.26,0000.13,-000.30,-000.34,-000.23,18.5,25.1,00.8,00.5,0680.6,31.0
2021-08-24T04:06:00Z,00000200,01000000,0000.32,-000.01,0000.16,0000.11,0000.12,0000.63,-000.03,-000.16,-000.16,18.5,25.2,00.6,00.4,0680.6,31.0
2021-08-24T04:07:00Z,00000200,01000000,0000.46,-000.07,0000.26,-000.22,0000.04,0000.47,-000.21,-000.08,-000.00,18.5,25.1,00.6,00.4,0680.6,31.0
2021-08-24T04:08:00Z,00000200,01000000,-000.47,0000.04,0000.30,0000.40,0000.14,0000.43,-000.02,0000.04,-000.23,18.5,25.1,00.5,00.4,0680.6,31.0
2021-08-24T04:09:00Z,00000200,01000000,-000.26,-000.25,0000.16,-000.13,0000.10,0000.28,0000.03,-000.30,0000.02,18.4,25.1,00.5,00.3,0680.6,31.0
2021-08-24T04:10:00Z,00000200,01000000,0000.01,0000.35,0000.25,0000.15,0000.14,0000.38,-000.39,0000.22,-000.06,18.4,25.1,00.6,00.4,0680.6,31.0
2021-08-24T04:11:00Z,00000200,01000000,0000.22,0000.21,0000.11,-000.18,0000.02,-000.01,0000.24,0000.23,0000.11,18.4,25.1,00.6,00.4,0680.5,30.9
2021-08-24T04:12:00Z,00000200,01000000,-000.17,0000.15,0000.25,0000.25,0000.35,0000.19,0000.34,-000.20,0000.08,18.3,25.0,00.7,00.5,0680.5,30.9
2021-08-24T04:13:00Z,00000200,01000000,0000.39,0000.06,0000.27,-000.08,0000.23,0000.48,-000.28,-000.12,-000.03,18.3,25.0,00.7,00.5,0680.5,30.9
2021-08-24T04:14:00Z,00000200,01000000,-000.08,0000.40,0000.47,-000.17,0000.03,0000.07,0000.24,0000.00,-000.06,18.2,25.0,00.7,00.5,0680.5,31.0
2021-08-24T04:15:00Z,00000200,01000000,0000.75,0000.09,-000.03,0000.37,0000.27,0000.22,-000.15,-000.09,0000.08,18.2,25.0,00.8,00.5,0680.5,30.9
2021-08-24T04:16:00Z,00000200,01000000,0000.16,0000.13,0000.34,0000.89,0000.11,0000.64,0000.65,0000.65,0000.18,18.2,24.9,00.8,00.5,0680.6,30.9
2021-08-24T04:17:00Z,00000200,01000000,0000.30,0000.14,0000.13,0000.43,0000.12,0000.12,0000.27,0000.41,0000.53,18.2,24.9,00.8,00.5,0680.6,30.9
2021-08-24T04:18:00Z,00000200,01000000,-000.48,0000.03,0000.56,0000.54,0000.02,0000.67,0000.09,-000.20,0000.18,18.3,25.0,00.8,00.5,0680.6,30.9
2021-08-24T04:19:00Z,00000200,01000000,0000.60,0000.03,0000.20,0000.76,0000.19,0000.30,-000.38,0000.12,-000.30,18.4,25.0,00.9,00.6,0680.6,31.0
2021-08-24T04:20:00Z,00000200,01000000,-000.04,0000.19,-000.02,-000.12,0000.08,0000.21,-000.06,-000.42,-000.19,18.5,25.1,00.8,00.5,0680.6,31.0
2021-08-24T04:21:00Z,00000200,01000000,-000.09,-000.09,0000.14,0000.79,0000.06,0000.07,0000.11,0000.66,0000.23,18.6,25.1,00.7,00.4,0680.6,31.0
2021-08-24T04:22:00Z,00000200,01000000,0000.24,0000.04,0000.17,0000.17,0000.22,0000.18,0000.01,-000.34,-000.12,18.6,25.1,00.7,00.5,0680.6,31.0
2021-08-24T04:23:00Z,00000200,01000000,0000.37,-000.32,0000.23,0000.39,-000.21,0000.21,-000.23,-000.33,-000.40,18.5,25.1,00.7,00.5,0680.6,31.0
2021-08-24T04:24:00Z,00000200,01000000,0000.18,0000.30,0000.26,0000.29,0000.24,0000.21,-000.46,-000.09,-000.06,18.5,25.1,00.7,00.4,0680.6,31.0
2021-08-24T04:25:00Z,00000200,01000000,-000.19,0000.23,0000.22,-000.02,0000.17,0000.19,-000.12,-000.56,-000.09,18.4,25.0,00.7,00.4,0680.7,30.9
2021-08-24T04:26:00Z,00000200,01000000,-000.17,0000.30,0000.32,-000.25,-000.24,0000.46,-000.36,-000.27,-000.41,18.4,25.0,00.5,00.3,0680.7,30.9
2021-08-24T04:27:00Z,00000200,01000000,-000.45,0000.34,0000.19,0001.02,0000.01,0000.13,-000.45,-000.14,-000.47,18.3,25.0,00.4,00.3,0680.7,30.9
2021-08-24T04:28:00Z,00000200,01000000,-000.38,-000.17,0000.20,0000.86,0000.05,0000.48,-000.10,-000.78,-000.19,18.3,25.0,00.3,00.2,0680.6,30.9
2021-08-24T04:29:00Z,00000200,01000000,-000.24,0000.04,0000.35,0000.73,-000.01,0000.39,-000.41,-000.14,-000.35,18.2,25.0,00.2,00.2,0680.6,30.9
2021-08-24T04:30:00Z,00000200,01000000,-000.17,0000.16,-000.10,0000.06,0000.05,0000.00,-000.33,-000.31,-000.12,18.2,24.9,00.2,00.2,0680.6,30.9
2021-08-24T04:31:00Z,00000200,01000000,0000.19,-000.35,0000.04,0000.25,0000.14,0000.08,0000.28,0000.40,0000.45,18.2,24.9,00.2,00.1,0680.6,30.9
2021-08-24T04:32:00Z,00000200,01000000,-000.14,0000.04,0000.30,0000.58,0000.16,0000.23,0000.20,0000.02,0000.14,18.2,24.9,00.2,00.1,0680.6,30.9
2021-08-24T04:33:00Z,00000200,01000000,-000.47,-000.02,-000.02,0000.11,-000.12,0000.12,0000.18,0000.56,0000.40,18.3,24.9,00.2,00.1,0680.6,30.9
2021-08-24T04:34:00Z,00000200,01000000,0000.51,0000.04,0000.09,0000.64,0000.22,0000.14,0000.20,0000.01,-000.13,18.4,25.0,00.2,00.1,0680.6,31.0
2021-08-24T04:35:00Z,00000200,01000000,-000.05,-000.35,-000.08,0000.58,0000.09,0000.42,0000.15,0000.23,0000.22,18.5,25.0,00.3,00.2,0680.6,31.0
2021-08-24T04:36:00Z,00000200,01000000,-000.28,0000.24,0000.10,0000.19,-000.08,0000.07,-000.15,-000.09,0000.01,18.6,25.1,00.2,00.1,0680.6,31.0
2021-08-24T04:37:00Z,00000200,01000000,0000.13,0000.11,0000.10,-000.18,-000.07,0000.67,0000.20,0000.12,0000.23,18.7,25.1,00.2,00.2,0680.6,31.0
2021-08-24T04:38:00Z,00000200,01000000,0000.33,0000.19,0000.21,-000.09,0000.17,0000.27,0000.06,-000.20,-000.30,18.7,25.1,00.2,00.1,0680.6,31.0
2021-08-24T04:39:00Z,00000200,01000000,-000.22,-000.02,0000.05,0000.61,-000.27,0000.30,-000.52,-000.27,-000.18,18.6,25.1,00.2,00.2,0680.6,31.0
2021-08-24T04:40:00Z,00000200,01000000,-000.30,0000.29,0000.21,-000.16,-000.08,0000.02,0000.48,0000.21,-000.13,18.5,25.1,00.3,00.2,0680.6,31.0
2021-08-24T04:41:00Z,00000200,01000000,-000.04,0000.13,0000.34,-000.02,0000.09,0000.21,-000.20,0000.15,-000.24,18.5,25.1,00.3,00.2,0680.7,31.0
2021-08-24T04:42:00Z,00000200,01000000,0000.17,-000.20,0000.30,0000.81,0000.24,0000.27,-000.04,-000.12,0000.79,18.4,25.0,00.3,00.2,0680.7,30.9
2021-08-24T04:43:00Z,00000200,01000000,-000.12,0000.10,-000.13,-000.19,0000.21,0000.35,0000.09,0000.14,-000.46,18.4,25.0,00.3,00.2,0680.7,30.9
2021-08-24T04:44:00Z,00000200,01000000,0000.58,-000.06,0000.24,0000.14,0000.13,0000.26,-000.06,-000.47,-000.21,18.3,25.0,00.4,00.3,0680.7,30.9
2021-08-24T04:45:00Z,00000200,01000000,0000.18,-000.07,0000.38,0000.54,-000.07,0000.35,-000.23,-000.03,-000.07,18.3,25.0,00.4,00.2,0680.7,30.9
2021-08-24T04:46:00Z,00000200,01000000,-000.23,0000.04,0000.34,0000.87,-000.13,0000.28,0000.50,0000.46,0000.76,18.3,24.9,00.3,00.2,0680.6,30.9
2021-08-24T04:47:00Z,00000200,01000000,0000.14,-000.13,0000.53,0000.49,-000.09,0000.35,-000.04,-000.00,-000.40,18.3,24.9,00.3,00.2,0680.6,30.9
2021-08-24T04:48:00Z,00000200,01000000,-000.16,0000.11,0000.51,0000.08,0000.08,0000.31,-000.06,0000.08,0000.07,18.4,25.0,00.3,00.2,0680.6,30.9
2021-08-24T04:49:00Z,00000200,01000000,0000.27,-000.40,-000.13,0000.24,0000.18,0000.21,0000.08,0000.30,0000.14,18.5,25.0,00.2,00.1,0680.6,31.0
2021-08-24T04:50:00Z,00000200,01000000,0000.66,0000.15,0000.02,0000.67,0000.01,0000.32,-000.15,-000.52,-000.21,18.6,25.1,00.2,00.2,0680.6,31.0
2021-08-24T04:51:00Z,00000200,01000000,0000.29,0000.06,0000.18,-000.02,0000.31,0000.30,-000.06,-000.05,-000.11,18.7,25.1,00.1,00.1,0680.7,31.0
2021-08-24T04:52:00Z,00000200,01000000,0000.51,0000.07,0000.08,0000.31,0000.03,0000.15,-000.61,-000.16,0000.39,18.7,25.2,00.2,00.1,0680.7,31.0
2021-08-24T04:53:00Z,00000200,01000000,0000.07,-000.22,0000.03,0000.86,-000.03,0000.30,-000.00,-000.38,-000.61,18.7,25.2,00.2,00.1,0680.7,31.0
2021-08-24T04:54:00Z,00000200,01000000,0000.27,0000.09,0000.02,-000.08,0000.01,-000.03,0000.00,-000.21,-000.36,18.6,25.1,00.2,00.1,0680.8,31.0
2021-08-24T04:55:00Z,00000200,01000000,0000.22,0000.20,0000.17,-000.83,0000.03,0000.30,-000.51,-000.45,-000.17,18.6,25.1,00.1,00.1,0680.8,31.0
2021-08-24T04:56:00Z,00000200,01000000,-000.34,-000.22,0000.45,0000.51,0000.09,0000.39,-000.10,0000.29,0000.13,18.5,25.1,00.1,00.1,0680.8,30.9
2021-08-24T04:57:00Z,00000200,41000000,,,,,,,0000.98,0000.60,0000.61,18.5,25.1,,00.0,0680.8,31.0
2021-08-24T04:58:00Z,00000200,61000000,,,,,,,-000.44,-000.85,-000.62,18.1,25.2,00.0,00.0,0679.7,31.0
2021-08-24T04:59:00Z,00000200,21000000,,,,,,,-000.60,-000.26,-000.44,18.1,25.3,,00.0,0679.7,30.9
